Latrobe, PA

11:47 PM EDT on June 16, 2019 (GMT -0400)
Arnold Palmer Regional

Weather History for KLBE - May, 2019

Change the Weather History Date:

Saturday, May 25, 2019

  Actual Average Record
Temperature  
Mean Temperature 70 °F -  
Max Temperature 84 °F 70 °F 86 °F (2012)
Min Temperature 55 °F 49 °F 35 °F (2013)
Cooling Degree Days 4    
Growing Degree Days 20 (Base 50)    
Moisture  
Dew Point 63 °F    
Average Humidity 92    
Maximum Humidity 100    
Minimum Humidity 58    
Precipitation  
Precipitation 0.00 in - - ()
Sea Level Pressure  
Sea Level Pressure 30.09 in    
Wind  
Wind Speed 3 mph (SSW)    
Max Wind Speed 16 mph    
Max Gust Speed 21 mph    
Visibility 13 miles    
Events Rain    
Averages and records for this station are not official NWS values.
T = Trace of Precipitation, MM = Missing Value Source: NWS Daily Summary

Daily Weather History Graph

Daily Weather History Graph

Search for Another Location

Airport or City:

Astronomy

May. 25, 2019 Rise Set
Actual Time 5:53 AM EDT 8:35 PM EDT
Civil Twilight 5:22 AM EDT 9:07 PM EDT
Nautical Twilight 4:42 AM EDT 9:47 PM EDT
Astronomical Twilight 3:57 AM EDT 10:32 PM EDT
Moon 1:35 AM EDT (5/25) 11:51 AM EDT (5/25)
Length of Visible Light 15h 45m
Length of Day
14h 41m
Waning Gibbous, 60% of the Moon is Illuminated
May 25
Waning Gibbous
May 26
Last Quarter
Jun 3
New
Jun 10
First Quarter
Jun 17
Full

Hourly Weather History & Observations

Time (EDT) Temp. Heat Index Dew Point Humidity Pressure Visibility Wind Dir Wind Speed Gust Speed Precip Events Conditions
12:15 AM 62.6 °F - 60.8 °F 94% 30.14 in 10.0 mi Calm Calm - N/A   Overcast
12:35 AM 62.6 °F - 60.8 °F 94% 30.13 in 10.0 mi Calm Calm - N/A   Mostly Cloudy
12:55 AM 60.8 °F - 60.8 °F 100% 30.13 in 10.0 mi Calm Calm - N/A   Mostly Cloudy
1:15 AM 60.8 °F - 60.8 °F 100% 30.13 in 10.0 mi Calm Calm - N/A   Scattered Clouds
1:35 AM 60.8 °F - 60.8 °F 100% 30.13 in 10.0 mi Calm Calm - N/A   Clear
1:55 AM 59.0 °F - 59.0 °F 100% 30.12 in 10.0 mi Calm Calm - N/A   Clear
2:15 AM 59.0 °F - 59.0 °F 100% 30.12 in 10.0 mi Calm Calm - N/A   Clear
2:35 AM 59.0 °F - 59.0 °F 100% 30.12 in 10.0 mi Calm Calm - N/A   Clear
2:55 AM 59.0 °F - 59.0 °F 100% 30.12 in 10.0 mi Calm Calm - N/A   Clear
3:15 AM 59.0 °F - 59.0 °F 100% 30.11 in 10.0 mi Calm Calm - N/A   Clear
3:35 AM 57.2 °F - 57.2 °F 100% 30.12 in 10.0 mi Calm Calm - N/A   Clear
3:55 AM 57.2 °F - 57.2 °F 100% 30.12 in 10.0 mi Calm Calm - N/A   Clear
4:15 AM 57.2 °F - 57.2 °F 100% 30.12 in 10.0 mi Calm Calm - N/A   Clear
4:35 AM 57.2 °F - 57.2 °F 100% 30.12 in 10.0 mi Calm Calm - N/A   Clear
4:55 AM 57.2 °F - 57.2 °F 100% 30.12 in 10.0 mi Calm Calm - N/A   Clear
5:15 AM 55.4 °F - 55.4 °F 100% 30.12 in 10.0 mi Calm Calm - N/A   Clear
5:35 AM 55.4 °F - 55.4 °F 100% 30.12 in 10.0 mi Calm Calm - N/A   Clear
5:55 AM 57.2 °F - 57.2 °F 100% 30.12 in 10.0 mi Calm Calm - N/A   Scattered Clouds
6:14 AM 57.2 °F - 57.2 °F 100% 30.11 in 20.0 mi Calm Calm - N/A   Mostly Cloudy
6:47 AM 57.2 °F - 57.2 °F 100% 30.12 in 20.0 mi Calm Calm - N/A   Mostly Cloudy
7:47 AM 60.8 °F - 60.8 °F 100% 30.12 in 20.0 mi Calm Calm - N/A   Scattered Clouds
8:47 AM 68.0 °F - 66.2 °F 94% 30.11 in 20.0 mi Calm Calm - N/A   Mostly Cloudy
9:47 AM 77.0 °F - 68.0 °F 74% 30.11 in 20.0 mi SW 9.2 mph - N/A   Clear
10:47 AM 80.6 °F 83.2 °F 68.0 °F 65% 30.10 in 20.0 mi SW 11.5 mph - N/A   Partly Cloudy
11:47 AM 82.4 °F 85.4 °F 68.0 °F 62% 30.08 in 20.0 mi SW 11.5 mph 17.3 mph N/A   Scattered Clouds
12:47 PM 84.2 °F 87.3 °F 68.0 °F 58% 30.06 in 20.0 mi SSW 11.5 mph 20.7 mph N/A   Mostly Cloudy
1:47 PM 82.4 °F 84.6 °F 66.2 °F 58% 30.04 in 20.0 mi SSW 11.5 mph 18.4 mph N/A   Overcast
2:51 PM 78.8 °F - 68.0 °F 69% 30.05 in 20.0 mi WSW 10.4 mph - N/A   Mostly Cloudy
3:51 PM 71.6 °F - 69.8 °F 94% 30.04 in 20.0 mi South 10.4 mph - N/A   Mostly Cloudy
4:51 PM 77.0 °F - 69.8 °F 78% 30.03 in 20.0 mi SSW 16.1 mph - N/A   Partly Cloudy
5:50 PM 77.0 °F - 68.0 °F 74% 30.02 in 10.0 mi SSW 16.1 mph - N/A   Partly Cloudy
6:50 PM 75.2 °F - 71.6 °F 89% 29.99 in 10.0 mi SSW 10.4 mph - N/A   Partly Cloudy
7:50 PM 75.2 °F - 71.6 °F 89% 30.01 in 10.0 mi SSW 10.4 mph - N/A   Scattered Clouds
8:55 PM 68.0 °F - 68.0 °F 100% 30.05 in 5.0 mi NW 11.5 mph - N/A Rain Light Rain
9:45 PM 68.0 °F - 68.0 °F 100% 30.06 in 8.0 mi Calm Calm - N/A   Mostly Cloudy
10:15 PM 68.0 °F - 68.0 °F 100% 30.05 in 10.0 mi South 6.9 mph - N/A   Mostly Cloudy
10:35 PM 68.0 °F - 68.0 °F 100% 30.06 in 10.0 mi South 5.8 mph - N/A   Partly Cloudy
10:55 PM 66.2 °F - 66.2 °F 100% 30.06 in 10.0 mi SSW 5.8 mph - N/A   Clear
11:15 PM 66.2 °F - 66.2 °F 100% 30.05 in 10.0 mi SSW 5.8 mph - N/A   Clear
11:35 PM 66.2 °F - 66.2 °F 100% 30.05 in 10.0 mi SSW 4.6 mph - N/A   Clear
11:55 PM - - - N/A% 30.04 in 10.0 mi SSW 8.1 mph - N/A   Clear